Hourly Data Report for September 05, 2017

All times are specified in Local Standard Time (LST). Add 1 hour to adjust for Daylight Saving Time where and when it is observed.

BATHURST A
NEW BRUNSWICK

47°37'47.000" N
65°44'20.000" W
58.80 m
8100505
71574
ZBF

Download Data

Hourly Data (September 2017)
Hourly Data Report for September 5, 2017
Temp Definition
°C
Dew Point Temp Definition
°C
Rel Hum Definition
%
Wind Dir Definition
10's deg

Wind Spd Definition
km/h
Visibility Definition
km
Stn Press Definition
kPa
Hmdx Definition


Wind Chill Definition


Weather Definition


TIME
00:00 Legend Double Dagger 16.9 12.3 74 20 12 24.1 99.67     LegendNANA
01:00 Legend Double Dagger 16.4 12.4 77 20 12 24.1 99.64     LegendNANA
02:00 Legend Double Dagger 16.0 12.5 80 16 12 24.1 99.66     Mostly Cloudy
03:00 Legend Double Dagger 15.9 12.6 80 19 11 24.1 99.63     LegendNANA
04:00 Legend Double Dagger 15.4 12.5 83 21 9 24.1 99.63     LegendNANA
05:00 Legend Double Dagger 15.1 12.6 85 19 10 24.1 99.60     Cloudy
06:00 Legend Double Dagger 15.1 12.7 85 19 14 24.1 99.62     LegendNANA
07:00 Legend Double Dagger 15.3 12.9 85 20 14 24.1 99.57     LegendNANA
08:00 Legend Double Dagger 16.5 13.5 82 21 16 24.1 99.58     Mostly Cloudy
09:00 Legend Double Dagger 17.8 14.2 79 21 17 24.1 99.61     LegendNANA
10:00 Legend Double Dagger 20.2 15.1 72 18 12 24.1 99.60     LegendNANA
11:00 Legend Double Dagger 20.6 15.1 70 20 18 24.1 99.63 25   Cloudy
12:00 Legend Double Dagger 22.8 16.6 67 22 12 24.1 99.65 28   LegendNANA
13:00 Legend Double Dagger 23.3 15.9 63 22 20 24.1 99.71 28   LegendNANA
14:00 Legend Double Dagger 23.5 16.1 63 24 20 24.1 99.75 28   Cloudy
15:00 Legend Double Dagger 23.4 16.4 64 21 14 24.1 99.77 28   LegendNANA
16:00 Legend Double Dagger 23.1 16.0 64 22 14 24.1 99.83 28   LegendNANA
17:00 Legend Double Dagger 22.3 15.9 67 22 10 24.1 99.92 27   Cloudy
18:00 Legend Double Dagger 21.4 16.5 74 20 9 16.1 100.00 26   Rain
19:00 Legend Double Dagger 20.9 16.5 75 21 10 19.3 100.01 26   Rain
20:00 Legend Double Dagger 20.2 16.6 79 22 11 19.3 100.14 25   Rain Showers
21:00 Legend Double Dagger 17.4 15.9 90 20 6 16.1 100.20     Rain Showers
22:00 Legend Double Dagger 16.9 15.8 93 24 5 19.3 100.15     Rain Showers
23:00 Legend Double Dagger 17.1 16.2 95 24 7 16.1 100.19     Rain Showers

Notes on Data Quality.

Legend

  • E = Estimated
  • M = Missing
  • NA = Not Available
  • ‡ = Partner data that is not subject to review by the National Climate Archives
Date modified: